| time (UTC) | temp F | wind direction | speed knots | gust knots | rain 1hr in | rain 24hr in | rain mn in | humidity % | barometer mb |
| 20260508191532 | 73 | 236 | 0.9 | 5.2 | 0.00 | 0.00 | 0.00 | 69 | 1012.0 |
| 20260508190130 | 73 | 271 | 2.6 | 7.8 | 0.00 | 0.00 | 0.00 | 67 | 1012.0 |
| 20260508184527 | 72 | 328 | 0.9 | 7.8 | 0.00 | 0.00 | 0.00 | 69 | 1012.1 |
| 20260508183025 | 72 | 339 | 3.5 | 7.0 | 0.00 | 0.00 | 0.00 | 67 | 1012.4 |
| 20260508181532 | 71 | 289 | 1.7 | 6.1 | 0.00 | 0.00 | 0.00 | 70 | 1012.4 |
| 20260508180020 | 70 | 242 | 0.9 | 7.0 | 0.00 | 0.00 | 0.00 | 70 | 1012.6 |
| 20260508174518 | 70 | 285 | 0.9 | 6.1 | 0.00 | 0.00 | 0.00 | 71 | 1012.8 |
| 20260508173013 | 69 | 289 | 1.7 | 7.0 | 0.00 | 0.00 | 0.00 | 71 | 1013.0 |
| 20260508171510 | 68 | 336 | 0.9 | 8.7 | 0.00 | 0.00 | 0.00 | 73 | 1013.2 |
| 20260508170006 | 67 | 231 | 1.7 | 6.1 | 0.00 | 0.00 | 0.00 | 73 | 1013.7 |
| 20260508164502 | 65 | 261 | 1.7 | 4.3 | 0.00 | 0.00 | 0.00 | 74 | 1014.0 |
| 20260508163108 | 65 | 249 | 0.9 | 3.5 | 0.00 | 0.00 | 0.00 | 75 | 1014.3 |
| 20260508161559 | 64 | 226 | 0.9 | 4.3 | 0.00 | 0.00 | 0.00 | 75 | 1014.4 |
| 20260508160057 | 63 | 265 | 0.0 | 7.8 | 0.00 | 0.00 | 0.00 | 75 | 1014.5 |
| 20260508154555 | 64 | 249 | 0.0 | 5.2 | 0.00 | 0.00 | 0.00 | 75 | 1014.8 |
| 20260508153105 | 64 | 137 | 2.6 | 7.0 | 0.00 | 0.00 | 0.00 | 74 | 1014.9 |
| 20260508151552 | 64 | 245 | 1.7 | 9.6 | 0.00 | 0.00 | 0.00 | 74 | 1015.2 |
| 20260508150051 | 62 | 151 | 0.9 | 3.5 | 0.00 | 0.00 | 0.00 | 76 | 1014.8 |
| 20260508144550 | 61 | 267 | 0.0 | 2.6 | 0.00 | 0.00 | 0.00 | 78 | 1015.4 |
| 20260508143110 | 62 | 239 | 0.0 | 2.6 | 0.00 | 0.00 | 0.00 | 77 | 1015.7 |
| 20260508141557 | 62 | 199 | 0.0 | 4.3 | 0.00 | 0.00 | 0.00 | 76 | 1016.0 |
| 20260508140055 | 63 | 238 | 1.7 | 7.0 | 0.00 | 0.00 | 0.00 | 74 | 1015.6 |
| 20260508134545 | 62 | 152 | 0.0 | 4.3 | 0.00 | 0.00 | 0.00 | 78 | 1015.5 |
| 20260508133041 | 60 | 268 | 0.9 | 4.3 | 0.00 | 0.00 | 0.00 | 78 | 1015.4 |
| 20260508131536 | 58 | 190 | 0.0 | 4.3 | 0.00 | 0.00 | 0.00 | 81 | 1015.1 |
| 20260508130032 | 56 | 155 | 0.9 | 3.5 | 0.00 | 0.00 | 0.00 | 83 | 1015.2 |
| 20260508124533 | 53 | 158 | 1.7 | 3.5 | 0.00 | 0.00 | 0.00 | 84 | 1015.2 |
| 20260508123030 | 52 | 178 | 0.9 | 3.5 | 0.00 | 0.00 | 0.00 | 85 | 1015.4 |
| 20260508121528 | 52 | 150 | 0.9 | 3.5 | 0.00 | 0.00 | 0.00 | 85 | 1015.4 |
| 20260508120027 | 0 | 0.0 | 0.0 | 0.00 | 0.00 | 0.00 | 1015.2 | ||
| 20260508114526 | 0 | 0.0 | 0.0 | 0.00 | 0.00 | 0.00 | 1015.1 | ||
| 20260508113019 | 0 | 0.0 | 0.0 | 0.00 | 0.00 | 0.00 | 1015.1 | ||
| 20260508111516 | 0 | 177 | 0.9 | 3.5 | 0.00 | 0.00 | 0.00 | 1015.0 | |
| 20260508110026 | 48 | 153 | 0.9 | 2.6 | 0.00 | 0.00 | 0.00 | 85 | 1015.0 |
| 20260508104612 | 49 | 162 | 0.0 | 1.7 | 0.00 | 0.00 | 0.00 | 85 | 1014.9 |
| 20260508103033 | 49 | 166 | 0.9 | 3.5 | 0.00 | 0.00 | 0.00 | 84 | 1015.0 |
| 20260508101511 | 48 | 161 | 0.9 | 3.5 | 0.00 | 0.00 | 0.00 | 84 | 1015.0 |
| 20260508100009 | 48 | 140 | 1.7 | 3.5 | 0.00 | 0.00 | 0.00 | 85 | 1015.0 |
| 20260508094507 | 48 | 152 | 0.9 | 2.6 | 0.00 | 0.00 | 0.00 | 86 | 1015.2 |
| 20260508093009 | 48 | 174 | 0.0 | 3.5 | 0.00 | 0.00 | 0.00 | 86 | 1015.3 |
| 20260508091504 | 48 | 156 | 1.7 | 4.3 | 0.00 | 0.00 | 0.00 | 86 | 1015.4 |
| 20260508090003 | 48 | 154 | 2.6 | 5.2 | 0.00 | 0.00 | 0.00 | 86 | 1015.2 |
| 20260508084600 | 49 | 180 | 2.6 | 5.2 | 0.00 | 0.00 | 0.00 | 86 | 1015.3 |
| 20260508083057 | 50 | 150 | 1.7 | 4.3 | 0.00 | 0.00 | 0.00 | 85 | 1015.3 |
| 20260508081611 | 50 | 166 | 0.9 | 2.6 | 0.00 | 0.00 | 0.00 | 84 | 1015.4 |
| 20260508080050 | 52 | 161 | 0.9 | 2.6 | 0.00 | 0.00 | 0.00 | 82 | 1015.3 |
| 20260508074549 | 52 | 149 | 0.9 | 2.6 | 0.00 | 0.00 | 0.00 | 80 | 1015.6 |
| 20260508073048 | 53 | 149 | 0.9 | 2.6 | 0.00 | 0.00 | 0.00 | 80 | 1015.5 |
| 20260508071545 | 53 | 147 | 0.9 | 2.6 | 0.00 | 0.00 | 0.00 | 79 | 1015.8 |
| 20260508070041 | 54 | 143 | 0.9 | 3.5 | 0.00 | 0.00 | 0.00 | 78 | 1015.8 |
| 20260508064540 | 54 | 173 | 0.9 | 3.5 | 0.00 | 0.00 | 0.00 | 77 | 1015.9 |
| 20260508063038 | 54 | 187 | 0.9 | 3.5 | 0.00 | 0.00 | 0.00 | 77 | 1016.2 |
| 20260508061534 | 54 | 147 | 0.9 | 1.7 | 0.00 | 0.00 | 0.00 | 76 | 1016.5 |
| 20260508060041 | 55 | 144 | 0.9 | 3.5 | 0.00 | 0.00 | 0.00 | 75 | 1016.5 |
| 20260508054607 | 55 | 158 | 0.9 | 2.6 | 0.00 | 0.00 | 0.00 | 75 | 1016.7 |
| 20260508053045 | 55 | 195 | 0.0 | 4.3 | 0.00 | 0.00 | 0.00 | 75 | 1016.7 |
| 20260508051530 | 56 | 147 | 0.0 | 3.5 | 0.00 | 0.00 | 0.00 | 75 | 1016.8 |
| 20260508050028 | 55 | 191 | 1.7 | 3.5 | 0.00 | 0.00 | 0.00 | 75 | 1016.7 |
| 20260508044529 | 55 | 171 | 0.0 | 2.6 | 0.00 | 0.00 | 0.00 | 75 | 1016.8 |
| 20260508043034 | 55 | 200 | 0.9 | 2.6 | 0.00 | 0.00 | 0.00 | 77 | 1016.8 |
| 20260508041525 | 54 | 184 | 0.9 | 2.6 | 0.00 | 0.00 | 0.00 | 78 | 1016.8 |
| 20260508040031 | 54 | 167 | 0.9 | 2.6 | 0.00 | 0.00 | 0.00 | 78 | 1016.8 |
| 20260508034534 | 54 | 170 | 1.7 | 3.5 | 0.00 | 0.00 | 0.00 | 78 | 1016.9 |
| 20260508033031 | 55 | 164 | 0.0 | 1.7 | 0.00 | 0.00 | 0.00 | 76 | 1016.9 |
| 20260508031523 | 56 | 155 | 0.9 | 2.6 | 0.00 | 0.00 | 0.00 | 75 | 1016.9 |
| 20260508030023 | 56 | 165 | 0.9 | 1.7 | 0.00 | 0.00 | 0.00 | 75 | 1016.9 |
| 20260508024525 | 56 | 168 | 0.9 | 1.7 | 0.00 | 0.00 | 0.00 | 75 | 1016.9 |
| 20260508023022 | 56 | 167 | 0.9 | 1.7 | 0.00 | 0.00 | 0.00 | 76 | 1016.8 |
| 20260508021521 | 55 | 186 | 0.0 | 1.7 | 0.00 | 0.00 | 0.00 | 76 | 1016.7 |
| 20260508020021 | 55 | 188 | 0.0 | 0.0 | 0.00 | 0.00 | 0.00 | 78 | 1016.4 |
| 20260508014523 | 55 | 187 | 0.0 | 0.0 | 0.00 | 0.00 | 0.00 | 78 | 1016.3 |
| 20260508013022 | 56 | 189 | 0.0 | 0.0 | 0.00 | 0.00 | 0.00 | 77 | 1016.1 |
| 20260508011521 | 58 | 189 | 0.0 | 0.9 | 0.00 | 0.00 | 0.00 | 74 | 1015.8 |
| 20260508010030 | 59 | 187 | 0.0 | 0.9 | 0.00 | 0.00 | 0.00 | 72 | 1015.8 |
| 20260508004525 | 62 | 184 | 0.0 | 0.9 | 0.00 | 0.00 | 0.00 | 69 | 1015.6 |
| 20260508003017 | 65 | 182 | 0.0 | 0.9 | 0.00 | 0.00 | 0.00 | 63 | 1015.3 |
| 20260508001516 | 66 | 172 | 0.0 | 3.5 | 0.00 | 0.00 | 0.00 | 61 | 1015.3 |
| 20260508000016 | 67 | 234 | 0.0 | 0.9 | 0.00 | 0.00 | 0.00 | 60 | 1015.3 |
| 20260507234514 | 67 | 270 | 0.0 | 2.6 | 0.00 | 0.00 | 0.00 | 59 | 1015.5 |
| 20260507233013 | 67 | 327 | 1.7 | 5.2 | 0.00 | 0.00 | 0.00 | 58 | 1015.7 |
| 20260507231513 | 67 | 302 | 0.0 | 5.2 | 0.00 | 0.00 | 0.00 | 57 | 1015.7 |
| 20260507230010 | 67 | 280 | 2.6 | 7.8 | 0.00 | 0.00 | 0.00 | 56 | 1016.0 |
| 20260507224513 | 67 | 166 | 2.6 | 6.1 | 0.00 | 0.00 | 0.00 | 55 | 1016.1 |
| 20260507223008 | 67 | 197 | 0.0 | 3.5 | 0.00 | 0.00 | 0.00 | 58 | 1016.4 |
| 20260507221510 | 68 | 268 | 2.6 | 12.2 | 0.00 | 0.00 | 0.00 | 56 | 1016.4 |
| 20260507220005 | 68 | 7 | 4.3 | 9.6 | 0.00 | 0.00 | 0.00 | 56 | 1016.3 |
| 20260507214504 | 68 | 344 | 2.6 | 11.3 | 0.00 | 0.00 | 0.00 | 55 | 1016.3 |
| 20260507213003 | 68 | 235 | 0.9 | 6.1 | 0.00 | 0.00 | 0.00 | 57 | 1016.4 |
| 20260507211606 | 67 | 320 | 0.0 | 8.7 | 0.00 | 0.00 | 0.00 | 57 | 1016.6 |
| 20260507210103 | 67 | 298 | 3.5 | 7.8 | 0.00 | 0.00 | 0.00 | 58 | 1016.8 |
| 20260507204554 | 66 | 360 | 4.3 | 7.8 | 0.00 | 0.00 | 0.00 | 57 | 1017.1 |
| 20260507203058 | 66 | 263 | 2.6 | 7.0 | 0.00 | 0.00 | 0.00 | 56 | 1017.5 |
| 20260507201552 | 66 | 287 | 2.6 | 7.0 | 0.00 | 0.00 | 0.00 | 56 | 1017.5 |
| 20260507200051 | 66 | 340 | 1.7 | 5.2 | 0.00 | 0.00 | 0.00 | 55 | 1017.7 |
| 20260507194550 | 66 | 350 | 1.7 | 9.6 | 0.00 | 0.00 | 0.00 | 55 | 1017.7 |
| 20260507193047 | 66 | 261 | 1.7 | 6.1 | 0.00 | 0.00 | 0.00 | 55 | 1017.8 |